AP893 Weather Reports


Display with metric or nautical units.
time (UTC)temp
F
wind
direction
speed
MPH
gust
MPH
rain 1hr
in
rain 24hr
in
rain mn
in
humidity
%
barometer
mb
20260903041009 61 277 0.0 0.0 0.00 0.00 0.00 57 1019.0
20260903040009 62 277 0.0 0.0 0.00 0.00 0.00 56 1019.0
20260903035010 62 277 0.0 0.0 0.00 0.00 0.00 53 1018.9
20260903034010 63 277 0.0 0.0 0.00 0.00 0.00 52 1018.9
20260903033009 64 277 0.0 0.0 0.00 0.00 0.00 50 1018.9
20260903032010 65 277 0.0 0.0 0.00 0.00 0.00 48 1018.9
20260903031010 66 277 0.0 0.0 0.00 0.00 0.00 47 1018.8
20260903030010 66 277 0.0 0.0 0.00 0.00 0.00 46 1018.9
20260903025010 67 277 0.0 0.0 0.00 0.00 0.00 45 1019.0
20260903024009 68 277 0.0 0.0 0.00 0.00 0.00 43 1019.1
20260903023010 69 277 0.0 0.0 0.00 0.00 0.00 41 1019.1
20260903022010 69 277 0.0 0.0 0.00 0.00 0.00 40 1019.1
20260903021011 70 277 0.0 2.0 0.00 0.00 0.00 38 1019.0
20260903020009 70 8 0.0 0.0 0.00 0.00 0.00 37 1019.1
20260903015009 71 8 0.0 2.0 0.00 0.00 0.00 36 1019.0
20260903014010 71 8 1.0 5.0 0.00 0.00 0.00 35 1019.0
20260903013010 72 18 0.0 0.0 0.00 0.00 0.00 34 1019.0
20260903011009 73 18 1.0 7.0 0.00 0.00 0.00 32 1019.0
20260903005009 75 254 0.0 6.0 0.00 0.00 0.00 30 1019.2
20260903004009 75 315 1.0 7.0 0.00 0.00 0.00 29 1019.1
20260903003009 75 0 0.0 7.0 0.00 0.00 0.00 30 1019.2
20260903002009 76 285 1.0 7.0 0.00 0.00 0.00 29 1019.2
20260903001010 76 38 0.0 8.0 0.00 0.00 0.00 29 1019.2
20260903000010 76 350 2.0 7.0 0.00 0.00 0.00 29 1019.2
20260902235010 76 268 0.0 6.0 0.00 0.00 0.00 29 1019.3
20260902234009 76 251 2.0 9.0 0.00 0.00 0.00 29 1019.4
20260902233009 76 347 1.0 10.0 0.00 0.00 0.00 29 1019.3
20260902232010 76 299 1.0 10.0 0.00 0.00 0.00 29 1019.3
20260902230009 76 198 3.0 8.0 0.00 0.00 0.00 30 1019.5
20260902225010 75 247 4.0 12.0 0.00 0.00 0.00 29 1019.6
20260902222009 75 38 1.0 7.0 0.00 0.00 0.00 31 1019.7
20260902220010 76 273 3.0 9.0 0.00 0.00 0.00 30 1020.0
20260902215010 76 4 3.0 9.0 0.00 0.00 0.00 29 1020.1
20260902214010 76 216 0.0 7.0 0.00 0.00 0.00 30 1020.2
20260902213010 75 262 3.0 7.0 0.00 0.00 0.00 31 1020.4
20260902211010 75 248 1.0 9.0 0.00 0.00 0.00 32 1020.3
20260902205010 76 191 3.0 10.0 0.00 0.00 0.00 32 1020.4
20260902204010 76 318 4.0 9.0 0.00 0.00 0.00 32 1020.4
20260902202010 76 328 1.0 8.0 0.00 0.00 0.00 32 1020.5
20260902201009 76 296 1.0 9.0 0.00 0.00 0.00 32 1020.5
20260902200011 76 144 1.0 7.0 0.00 0.00 0.00 31 1020.5
20260902195010 76 328 0.0 5.0 0.00 0.00 0.00 31 1020.5
20260902194009 76 145 0.0 9.0 0.00 0.00 0.00 32 1020.5
20260902193009 75 116 1.0 9.0 0.00 0.00 0.00 34 1020.4
20260902192010 74 288 3.0 8.0 0.00 0.00 0.00 34 1020.5
20260902190010 74 0 0.0 9.0 0.00 0.00 0.00 34 1020.5
20260902185010 74 312 5.0 10.0 0.00 0.00 0.00 35 1020.5
20260902184009 74 311 3.0 15.0 0.00 0.00 0.00 34 1020.6
20260902183010 74 260 2.0 8.0 0.00 0.00 0.00 34 1020.6
20260902182009 74 99 2.0 10.0 0.00 0.00 0.00 35 1020.6
20260902181010 73 155 3.0 8.0 0.00 0.00 0.00 36 1020.6
20260902180010 73 256 0.0 8.0 0.00 0.00 0.00 37 1020.6
20260902175009 73 284 2.0 9.0 0.00 0.00 0.00 36 1020.5
20260902174010 72 110 1.0 7.0 0.00 0.00 0.00 38 1020.5
20260902173010 71 172 0.0 8.0 0.00 0.00 0.00 40 1020.4
20260902171010 69 271 3.0 9.0 0.00 0.00 0.00 42 1020.4
20260902170010 69 309 2.0 9.0 0.00 0.00 0.00 43 1020.3
20260902165009 69 281 0.0 3.0 0.00 0.00 0.00 44 1020.2
20260902164009 68 140 0.0 0.0 0.00 0.00 0.00 45 1020.1
20260902163009 67 140 0.0 2.0 0.00 0.00 0.00 46 1020.0
20260902162009 66 121 0.0 0.0 0.00 0.00 0.00 47 1019.9
20260902161010 64 121 0.0 5.0 0.00 0.00 0.00 50 1019.9
20260902160010 61 146 1.0 6.0 0.00 0.00 0.00 54 1019.9
20260902155009 60 140 0.0 0.0 0.00 0.00 0.00 60 1019.9
20260902154009 58 140 1.0 5.0 0.00 0.00 0.00 65 1019.9
20260902152009 55 55 0.0 0.0 0.00 0.00 0.00 76 1019.9
20260902151009 54 55 1.0 3.0 0.00 0.00 0.00 81 1019.7
20260902150010 53 344 0.0 0.0 0.00 0.00 0.00 89 1019.7
20260902145009 51 344 0.0 0.0 0.00 0.00 0.00 93 1019.6
20260902144009 50 344 0.0 0.0 0.00 0.00 0.00 95 1019.6
20260902143009 48 344 0.0 0.0 0.00 0.00 0.00 96 1019.3
20260902141009 47 344 0.0 0.0 0.00 0.00 0.00 95 1018.9
20260902140012 47 344 0.0 0.0 0.00 0.00 0.00 94 1019.0
20260902135009 47 344 0.0 0.0 0.00 0.00 0.00 94 1018.8
20260902132009 47 344 0.0 0.0 0.00 0.00 0.00 93 1018.4
20260902131009 47 344 0.0 0.0 0.00 0.00 0.00 93 1018.4
20260902130009 47 344 0.0 0.0 0.00 0.00 0.00 93 1018.3
20260902125009 47 344 0.0 0.0 0.00 0.00 0.00 92 1018.3
20260902124010 47 344 0.0 0.0 0.00 0.00 0.00 92 1018.4
20260902123009 48 344 0.0 0.0 0.00 0.00 0.00 92 1018.4
20260902122009 48 344 0.0 0.0 0.00 0.00 0.00 92 1018.4
20260902121009 48 344 0.0 0.0 0.00 0.00 0.00 92 1018.4
20260902120009 48 344 0.0 0.0 0.00 0.00 0.00 91 1018.4
20260902115009 48 344 0.0 0.0 0.00 0.00 0.00 91 1018.5
20260902114010 48 344 0.0 0.0 0.00 0.00 0.00 91 1018.6
20260902113010 48 344 0.0 0.0 0.00 0.00 0.00 90 1018.8
20260902112009 49 344 0.0 0.0 0.00 0.00 0.00 90 1018.8
20260902111009 49 344 0.0 0.0 0.00 0.00 0.00 90 1018.8
20260902104010 50 344 0.0 0.0 0.00 0.00 0.00 87 1018.9
20260902102010 50 344 0.0 0.0 0.00 0.00 0.00 85 1018.8
20260902101010 51 344 0.0 0.0 0.00 0.00 0.00 84 1018.8
20260902100011 51 344 0.0 0.0 0.00 0.00 0.00 84 1018.8
20260902070010 53 344 0.0 0.0 0.00 0.00 0.00 81 1019.2
20260902065010 54 344 0.0 0.0 0.00 0.00 0.00 80 1019.2
20260902062009 54 344 0.0 0.0 0.00 0.00 0.00 76 1019.3
20260902061010 55 344 0.0 0.0 0.00 0.00 0.00 75 1019.3
20260902060009 55 344 0.0 0.0 0.00 0.00 0.00 73 1019.3
20260902054009 55 344 0.0 1.0 0.00 0.00 0.00 73 1019.5
20260902053010 55 344 0.0 0.0 0.00 0.00 0.00 71 1019.5
20260902052010 55 344 0.0 0.0 0.00 0.00 0.00 69 1019.5
20260902051010 56 344 0.0 0.0 0.00 0.00 0.00 67 1019.5
20260902050010 56 344 0.0 0.0 0.00 0.00 0.00 65 1019.4
20260902045009 56 344 0.0 0.0 0.00 0.00 0.00 63 1019.3
20260902044009 56 344 0.0 0.0 0.00 0.00 0.00 61 1019.2
20260902043010 57 344 0.0 0.0 0.00 0.00 0.00 59 1019.1
20260902042009 58 344 0.0 0.0 0.00 0.00 0.00 56 1019.1